Exeter
DateTemperatureDew Point
07/12 - 10:00 PM82.7°66.9°
07/12 - 09:45 PM82.9°66.7°
07/12 - 09:30 PM84.4°66.7°
07/12 - 09:15 PM85.3°66.4°
07/12 - 09:00 PM86.2°66.4°
07/12 - 08:45 PM87.3°66.8°
07/12 - 08:30 PM88.6°67.7°
07/12 - 08:15 PM90.5°68.2°
07/12 - 08:00 PM92.4°67.8°
07/12 - 07:45 PM94.0°68.3°
07/12 - 07:30 PM95.3°68.3°
07/12 - 07:15 PM95.8°69.1°
07/12 - 07:00 PM95.6°70.1°
07/12 - 06:45 PM95.1°71.4°
07/12 - 06:30 PM95.9°70.0°
07/12 - 06:15 PM96.0°68.7°
07/12 - 06:00 PM97.4°68.5°
07/12 - 05:45 PM99.3°67.7°
07/12 - 05:30 PM101.8°67.7°
07/12 - 05:15 PM105.9°68.4°
07/12 - 05:00 PM105.6°67.8°
07/12 - 04:45 PM106.6°68.3°
07/12 - 04:30 PM107.7°66.0°
07/12 - 04:15 PM107.6°65.4°
07/12 - 04:00 PM106.8°66.2°
07/12 - 03:45 PM107.0°65.8°
07/12 - 03:30 PM106.5°67.2°
07/12 - 03:15 PM105.5°66.8°
07/12 - 03:00 PM103.5°69.1°
07/12 - 02:45 PM101.1°71.2°
07/12 - 02:30 PM96.1°73.0°
07/12 - 02:15 PM95.8°71.4°
07/12 - 02:00 PM95.8°69.1°
07/12 - 01:45 PM96.3°68.9°
07/12 - 01:30 PM97.3°67.5°
07/12 - 01:15 PM99.5°67.7°
07/12 - 01:00 PM97.6°66.4°
07/12 - 12:45 PM96.7°65.9°
07/12 - 12:30 PM95.7°66.1°
07/12 - 12:15 PM93.0°66.6°
07/12 - 12:00 PM90.8°64.5°
07/12 - 11:45 AM90.5°64.9°
07/12 - 11:30 AM91.7°66.0°
07/12 - 11:15 AM90.9°66.0°
07/12 - 11:00 AM91.2°65.8°
07/12 - 10:45 AM92.2°64.3°
07/12 - 10:30 AM92.4°63.8°
07/12 - 10:15 AM92.3°65.0°
07/12 - 10:00 AM91.2°64.7°
07/12 - 09:45 AM90.3°64.3°
07/12 - 09:30 AM89.0°63.1°
07/12 - 09:15 AM88.2°62.6°
07/12 - 09:00 AM86.2°62.7°
07/12 - 08:45 AM84.6°61.6°
07/12 - 08:30 AM82.9°60.8°
07/12 - 08:15 AM80.6°59.6°
07/12 - 08:00 AM78.8°59.2°
07/12 - 07:45 AM77.7°60.0°
07/12 - 07:30 AM76.4°61.6°
07/12 - 07:15 AM76.2°61.1°
07/12 - 07:00 AM74.6°60.1°
07/12 - 06:45 AM72.7°60.9°
07/12 - 06:30 AM70.4°63.9°
07/12 - 06:15 AM70.1°65.2°
07/12 - 06:00 AM70.1°64.7°
07/12 - 05:45 AM70.1°64.4°
07/12 - 05:30 AM70.4°64.4°
07/12 - 05:15 AM71.0°63.8°
07/12 - 05:00 AM71.7°62.1°
07/12 - 04:45 AM71.7°62.3°
07/12 - 04:30 AM71.6°63.8°
07/12 - 04:15 AM72.2°64.8°
07/12 - 04:00 AM73.2°63.9°
07/12 - 03:45 AM72.2°64.5°
07/12 - 03:30 AM70.9°66.3°
07/12 - 03:15 AM70.7°66.7°
07/12 - 03:00 AM71.1°67.0°
07/12 - 02:45 AM71.3°67.0°
07/12 - 02:30 AM71.6°67.1°
07/12 - 02:15 AM72.0°67.0°
07/12 - 02:00 AM72.4°67.5°
07/12 - 01:45 AM72.9°67.7°
07/12 - 01:30 AM73.3°67.4°
07/12 - 01:15 AM73.8°67.3°
07/12 - 01:00 AM73.8°67.5°
07/12 - 12:45 AM74.2°67.7°
07/12 - 12:30 AM74.3°68.2°
07/12 - 12:15 AM74.4°68.9°
07/12 - 12:00 AM74.8°69.1°
07/11 - 11:45 PM75.3°68.9°
07/11 - 11:30 PM76.0°68.4°
07/11 - 11:15 PM76.9°68.1°
07/11 - 11:00 PM77.7°67.8°
07/11 - 10:45 PM78.4°67.1°
07/11 - 10:30 PM78.5°67.1°
07/11 - 10:15 PM79.3°67.4°
07/11 - 10:00 PM78.8°69.1°
07/11 - 09:45 PM79.3°69.5°
07/11 - 09:30 PM80.2°68.7°
07/11 - 09:15 PM81.4°68.1°
07/11 - 09:00 PM82.9°67.9°
07/11 - 08:45 PM84.9°68.3°
07/11 - 08:30 PM86.9°69.0°
07/11 - 08:15 PM89.1°69.3°
07/11 - 08:00 PM91.3°70.2°
07/11 - 07:45 PM94.7°69.2°
07/11 - 07:30 PM97.6°67.2°
07/11 - 07:15 PM99.5°67.2°
07/11 - 07:00 PM101.1°67.3°
07/11 - 06:45 PM102.5°67.1°
07/11 - 06:30 PM103.8°66.8°
07/11 - 06:15 PM105.3°65.2°
07/11 - 06:00 PM106.3°64.5°
07/11 - 05:45 PM107.4°65.1°
07/11 - 05:30 PM109.3°65.9°
07/11 - 05:15 PM110.1°65.7°
07/11 - 05:00 PM110.2°64.9°
07/11 - 04:45 PM110.1°64.6°
07/11 - 04:30 PM110.4°66.5°
07/11 - 04:15 PM110.4°67.3°
07/11 - 04:00 PM111.1°67.3°
07/11 - 03:45 PM110.4°67.0°
07/11 - 03:30 PM110.2°66.1°
07/11 - 03:15 PM110.7°66.9°
07/11 - 03:00 PM110.3°66.6°
07/11 - 02:45 PM109.2°66.4°
07/11 - 02:30 PM108.8°64.9°
07/11 - 02:15 PM107.5°64.5°
07/11 - 02:00 PM107.5°63.3°
07/11 - 01:45 PM106.8°63.7°
07/11 - 01:30 PM105.5°64.8°
07/11 - 01:15 PM104.5°63.6°
07/11 - 01:00 PM104.2°65.7°
07/11 - 12:45 PM103.3°67.2°
07/11 - 12:30 PM103.0°66.2°
07/11 - 12:15 PM102.1°67.8°
07/11 - 12:00 PM101.1°67.2°
07/11 - 11:45 AM100.5°68.7°
07/11 - 11:30 AM99.3°69.5°
07/11 - 11:15 AM98.3°69.0°
07/11 - 11:00 AM97.1°69.2°
07/11 - 10:45 AM96.5°69.7°
07/11 - 10:30 AM95.5°69.1°
07/11 - 10:15 AM94.6°68.0°
07/11 - 10:00 AM93.2°67.7°
07/11 - 09:45 AM92.4°67.0°
07/11 - 09:30 AM91.7°67.4°
07/11 - 09:15 AM90.8°66.6°
07/11 - 09:00 AM89.3°65.2°
07/11 - 08:45 AM87.5°64.7°
07/11 - 08:30 AM85.2°65.1°
07/11 - 08:15 AM82.6°64.4°
07/11 - 08:00 AM79.0°64.9°
07/11 - 07:45 AM75.8°65.5°
07/11 - 07:30 AM72.6°65.9°
07/11 - 07:15 AM70.2°67.0°
07/11 - 07:00 AM68.7°65.7°
07/11 - 06:45 AM67.3°64.5°
07/11 - 06:30 AM66.5°63.7°
07/11 - 06:15 AM66.2°63.3°
07/11 - 06:00 AM66.3°63.4°
07/11 - 05:45 AM66.4°63.3°
07/11 - 05:30 AM66.8°63.6°
07/11 - 05:15 AM67.0°63.7°
07/11 - 05:00 AM67.2°63.7°
07/11 - 04:45 AM67.5°63.9°
07/11 - 04:30 AM67.8°64.3°
07/11 - 04:15 AM68.2°64.7°
07/11 - 04:00 AM68.5°64.8°
07/11 - 03:45 AM68.7°64.8°
07/11 - 03:30 AM69.0°65.1°
07/11 - 03:15 AM69.4°65.3°
07/11 - 03:00 AM69.8°65.6°
07/11 - 02:45 AM70.0°65.6°
07/11 - 02:30 AM70.2°65.8°
07/11 - 02:15 AM70.4°66.0°
07/11 - 02:00 AM70.8°66.0°
07/11 - 01:45 AM71.3°66.2°
07/11 - 01:30 AM71.6°66.2°
07/11 - 01:15 AM72.1°66.2°
07/11 - 01:00 AM72.5°66.2°
07/11 - 12:45 AM72.7°66.2°
07/11 - 12:30 AM73.2°66.0°
07/11 - 12:15 AM73.9°66.0°
07/11 - 12:00 AM74.4°66.0°
07/10 - 11:45 PM74.3°65.7°
07/10 - 11:30 PM74.8°65.3°
07/10 - 11:15 PM75.6°65.0°
07/10 - 11:00 PM76.4°64.7°
07/10 - 10:45 PM77.3°64.8°
07/10 - 10:30 PM78.6°65.7°